Weather History for Fallon NAS, NV

Change the Weather History Date:

Wednesday, February 6, 2013

  Actual Average Record
Temperature  
Mean Temperature 35 °F -  
Max Temperature 51 °F 47 °F 109 °F (2004)
Min Temperature 19 °F 20 °F -27 °F (1989)
Degree Days  
Heating Degree Days 30    
Moisture  
Dew Point 17 °F    
Average Humidity 50    
Maximum Humidity 75    
Minimum Humidity 23    
Precipitation  
Precipitation 0.00 in - - ()
Sea Level Pressure  
Sea Level Pressure 30.00 in    
Wind  
Wind Speed 4 mph (SSE)    
Max Wind Speed 7 mph    
Max Gust Speed -    
Visibility 10 miles    
Events      
Averages and records for this station are not official NWS values.
T = Trace of Precipitation, MM = Missing Value Source: NWS Daily Summary

Daily Weather History Graph

Daily Weather History Graph

Search for Another Location

Airport:

Trip Planner

Search our weather history database for the weather conditions in past years. The results will help you decide how hot, cold, wet, or windy it might be!

Date:

Astronomy

Feb. 06, 2013 Rise Set
Actual Time 6:56 AM PST 5:21 PM PST
Civil Twilight 6:28 AM PST 5:49 PM PST
Nautical Twilight 5:56 AM PST 6:21 PM PST
Astronomical Twilight 5:25 AM PST 6:52 PM PST
Moon 3:44 AM PST (2/6) 1:45 PM PST (2/6)
Length of Visible Light 11h 20m
Length of Day
10h 24m
Waning Crescent, 16% of the Moon is Illuminated
Feb 6
Waning Crescent
Feb 9
New
Feb 17
First Quarter
Feb 25
Full
Mar 4
Last Quarter

Hourly Weather History & Observations

Time (PST) Temp. Windchill Dew Point Humidity Pressure Visibility Wind Dir Wind Speed Gust Speed Precip Events Conditions
12:56 AM 28.9 °F 25.2 °F 15.1 °F 56% 29.98 in 10.0 mi WNW 3.5 mph - N/A   Clear
1:56 AM 27.0 °F 23.0 °F 14.0 °F 58% 29.98 in 10.0 mi West 3.5 mph - N/A   Clear
2:56 AM 24.1 °F 18.2 °F 12.9 °F 62% 29.99 in 10.0 mi WSW 4.6 mph - N/A   Clear
3:56 AM 21.9 °F 14.5 °F 14.0 °F 72% 30.00 in 10.0 mi South 5.8 mph - N/A   Clear
4:56 AM 21.0 °F 12.4 °F 14.0 °F 74% 30.00 in 10.0 mi South 6.9 mph - N/A   Clear
5:56 AM 19.9 °F 11.1 °F 12.9 °F 74% 30.01 in 10.0 mi SE 6.9 mph - N/A   Clear
6:17 AM 19.4 °F 10.4 °F 12.2 °F 74% 30.11 in 10.0 mi SE 6.9 mph - N/A   Clear
6:56 AM 21.9 °F 15.7 °F 15.1 °F 75% 30.03 in 10.0 mi South 4.6 mph - N/A   Clear
7:56 AM 28.0 °F - 19.0 °F 69% 30.04 in 10.0 mi Calm Calm - N/A   Clear
8:56 AM 37.0 °F 34.5 °F 24.1 °F 59% 30.05 in 10.0 mi SW 3.5 mph - N/A   Clear
9:56 AM 41.0 °F - 27.0 °F 57% 30.06 in 10.0 mi Calm Calm - N/A   Clear
10:56 AM 44.1 °F 41.5 °F 26.1 °F 49% 30.06 in 10.0 mi Variable 4.6 mph - N/A   Partly Cloudy
11:56 AM 46.9 °F - 25.0 °F 42% 30.04 in 10.0 mi Calm Calm - N/A   Clear
12:56 PM 48.9 °F - 21.9 °F 35% 30.02 in 10.0 mi SSE 4.6 mph - N/A   Clear
1:56 PM 50.0 °F - 19.0 °F 29% 30.00 in 10.0 mi SE 4.6 mph - N/A   Clear
2:56 PM 51.1 °F - 19.0 °F 28% 29.99 in 10.0 mi South 4.6 mph - N/A   Clear
3:56 PM 51.1 °F - 14.0 °F 23% 29.98 in 10.0 mi SE 3.5 mph - N/A   Clear
4:56 PM 50.0 °F - 12.9 °F 23% 29.96 in 10.0 mi ESE 4.6 mph - N/A   Scattered Clouds
5:56 PM 43.0 °F 40.3 °F 12.9 °F 30% 29.96 in 10.0 mi ESE 4.6 mph - N/A   Scattered Clouds
6:56 PM 35.1 °F 29.3 °F 12.9 °F 40% 29.96 in 10.0 mi ESE 6.9 mph - N/A   Scattered Clouds
7:56 PM 36.0 °F 30.3 °F 16.0 °F 44% 29.96 in 10.0 mi SE 6.9 mph - N/A   Mostly Cloudy
8:56 PM 35.1 °F 29.3 °F 14.0 °F 42% 29.96 in 10.0 mi SSE 6.9 mph - N/A   Mostly Cloudy
9:56 PM 32.0 °F 25.6 °F 14.0 °F 48% 29.95 in 10.0 mi SSE 6.9 mph - N/A   Scattered Clouds
10:56 PM 35.1 °F 30.1 °F 15.1 °F 44% 29.94 in 10.0 mi SSE 5.8 mph - N/A   Scattered Clouds
11:56 PM 36.0 °F 30.3 °F 12.9 °F 39% 29.94 in 10.0 mi SSW 6.9 mph - N/A   Clear